{"data":{"norad_id":50174,"epoch":"2026-09-20T00:48:04.140000Z","epoch_age_seconds":85540,"freshness":"FRESH","line1":"1 50174U 21125U   26263.03338125 -.00000541  00000+0 -48858-5 0  9991","line2":"2 50174  53.1589  75.7373 0001019  84.0593 276.0525 15.34382344266279","mean_motion":15.34382344,"eccentricity":0.0001019,"inclination_deg":53.1589,"raan_deg":75.7373,"arg_perigee_deg":84.0593,"mean_anomaly_deg":276.0525,"bstar":-4.8858e-6,"rev_number":26627,"period_min":93.848837979069,"perigee_km":462.05863109518,"apogee_km":463.45280503112,"semimajor_km":6840.8927180631,"source":"CELESTRAK","updated_at":"2026-09-20T09:00:39.415458Z"}}